Location: General Nathan Twining Observatory
(34.5931°N, 106.8201°W)
Time: 09:40:26
(UTC-06:00)

FREGAT/IRIS - Pass Details

Date: 20 September 2017
Orbit: 379 x 388 km, 97.0° (Epoch: 22 October)

Event Time Altitude Azimuth Distance (km) Brightness Sun altitude
Rises 19:43:48 0° 156° (SSE) 2,275 6.2 -8.5°
Reaches altitude 10° 19:45:48 10° 150° (SSE) 1,424 5.1 -8.9°
Maximum altitude 19:48:43 44° 76° (ENE) 552 2.9 -9.5°
Drops below altitude 10° 19:51:39 10° 3° (N) 1,433 5.5 -10.1°
Sets 19:53:40 0° 356° (N) 2,292 6.7 -10.5°
